Weather History for LICC - October, 2012

Change the Weather History Date:

Wednesday, October 10, 2012

  Actual Average Record
Temperature  
Mean Temperature 73 °F -  
Max Temperature 86 °F 74 °F 87 °F (2004)
Min Temperature 60 °F 54 °F 50 °F (2003)
Cooling Degree Days 8    
Growing Degree Days 23 (Base 50)    
Moisture  
Dew Point 57 °F    
Average Humidity 62    
Maximum Humidity 88    
Minimum Humidity 27    
Precipitation  
Precipitation 0.00 in 0.12 in - ()
Sea Level Pressure  
Sea Level Pressure 29.83 in    
Wind  
Wind Speed 6 mph ()    
Max Wind Speed 16 mph    
Max Gust Speed -    
Visibility 6.2 miles    
Events      
Averages and records for this station are not official NWS values.
T = Trace of Precipitation, MM = Missing Value Source: Averaged Metar Reports

Daily Weather History Graph

Daily Weather History Graph

Search for Another Location

Airport or City:

Trip Planner

Search our weather history database for the weather conditions in past years. The results will help you decide how hot, cold, wet, or windy it might be!

Date:

Astronomy

Oct. 10, 2012 Rise Set
Actual Time 7:03 AM CEST 6:29 PM CEST
Civil Twilight 6:37 AM CEST 6:55 PM CEST
Nautical Twilight 6:06 AM CEST 7:25 PM CEST
Astronomical Twilight 5:36 AM CEST 7:55 PM CEST
Moon 1:28 AM CEST (10/10) 3:16 PM CEST (10/10)
Length of Visible Light 12h 18m
Length of Day
11h 25m
Waning Crescent, 30% of the Moon is Illuminated
Oct 10
Waning Crescent
Oct 15
New
Oct 22
First Quarter
Oct 29
Full
Nov 7
Last Quarter

Hourly Weather History & Observations

Time (CEST) Temp. Heat Index Dew Point Humidity Pressure Visibility Wind Dir Wind Speed Gust Speed Precip Events Conditions
12:20 AM 68.0 °F - 60.8 °F 78% 29.86 in 6.2 mi SW 4.6 mph - N/A   Partly Cloudy
12:50 AM 66.2 °F - 60.8 °F 83% 29.86 in 6.2 mi West 3.5 mph - N/A   Partly Cloudy
1:20 AM 64.4 °F - 60.8 °F 88% 29.86 in 6.2 mi SW 4.6 mph - N/A   Partly Cloudy
1:50 AM 64.4 °F - 59.0 °F 83% 29.86 in 6.2 mi West 4.6 mph - N/A   Partly Cloudy
2:20 AM 64.4 °F - 59.0 °F 83% 29.86 in 6.2 mi West 3.5 mph - N/A   Partly Cloudy
2:50 AM 64.4 °F - 59.0 °F 83% 29.83 in 6.2 mi West 3.5 mph - N/A   Partly Cloudy
3:20 AM 64.4 °F - 59.0 °F 83% 29.83 in 6.2 mi SW 3.5 mph - N/A   Partly Cloudy
3:50 AM 62.6 °F - 57.2 °F 82% 29.83 in 6.2 mi WSW 3.5 mph - N/A   Partly Cloudy
4:20 AM 62.6 °F - 57.2 °F 82% 29.83 in 6.2 mi WSW 3.5 mph - N/A   Partly Cloudy
4:50 AM 62.6 °F - 57.2 °F 82% 29.83 in 6.2 mi WSW 6.9 mph - N/A   Partly Cloudy
5:20 AM 60.8 °F - 57.2 °F 88% 29.83 in 6.2 mi WSW 5.8 mph - N/A   Partly Cloudy
5:50 AM 60.8 °F - 57.2 °F 88% 29.83 in 6.2 mi West 5.8 mph - N/A   Partly Cloudy
6:20 AM 60.8 °F - 57.2 °F 88% 29.83 in 6.2 mi WSW 5.8 mph - N/A   Partly Cloudy
6:50 AM 60.8 °F - 55.4 °F 82% 29.83 in 6.2 mi WSW 6.9 mph - N/A   Partly Cloudy
7:20 AM 60.8 °F - 55.4 °F 82% 29.83 in - West 3.5 mph - N/A   Clear
7:50 AM 64.4 °F - 57.2 °F 77% 29.83 in - WSW 5.8 mph - N/A   Clear
8:20 AM 66.2 °F - 57.2 °F 73% 29.83 in - SW 4.6 mph - N/A   Clear
8:50 AM 71.6 °F - 57.2 °F 60% 29.83 in - Variable 4.6 mph - N/A   Clear
9:20 AM 73.4 °F - 57.2 °F 57% 29.83 in - West 8.1 mph - N/A   Clear
9:50 AM 77.0 °F - 57.2 °F 50% 29.83 in - West 8.1 mph - N/A   Clear
10:20 AM 78.8 °F - 55.4 °F 44% 29.83 in - West 9.2 mph - N/A   Clear
10:50 AM 82.4 °F 81.4 °F 53.6 °F 37% 29.80 in - West 12.7 mph - N/A   Clear
11:50 AM 84.2 °F - 48.2 °F 29% 29.80 in 6.2 mi West 16.1 mph - N/A   Partly Cloudy
12:20 PM 86.0 °F - 48.2 °F 27% 29.80 in 6.2 mi WNW 13.8 mph - N/A   Partly Cloudy
12:50 PM 84.2 °F 82.8 °F 53.6 °F 35% 29.80 in 6.2 mi NE 6.9 mph - N/A   Scattered Clouds
1:20 PM 80.6 °F 81.5 °F 60.8 °F 51% 29.80 in 5.6 mi ENE 12.7 mph - N/A   Scattered Clouds
1:50 PM 80.6 °F 80.8 °F 57.2 °F 45% 29.80 in 6.2 mi NE 11.5 mph - N/A   Partly Cloudy
2:20 PM 80.6 °F 81.1 °F 59.0 °F 48% 29.80 in 6.2 mi East 10.4 mph - N/A   Partly Cloudy
2:50 PM 80.6 °F 81.1 °F 59.0 °F 48% 29.80 in 6.2 mi ENE 13.8 mph - N/A   Partly Cloudy
3:20 PM 78.8 °F - 60.8 °F 54% 29.80 in 6.2 mi ENE 12.7 mph - N/A   Partly Cloudy
3:50 PM 77.0 °F - 62.6 °F 61% 29.80 in 6.2 mi NE 11.5 mph - N/A   Partly Cloudy
4:20 PM 78.8 °F - 60.8 °F 54% 29.80 in 6.2 mi NE 12.7 mph - N/A   Partly Cloudy
4:50 PM 77.0 °F - 60.8 °F 57% 29.80 in 6.2 mi ENE 13.8 mph - N/A   Partly Cloudy
5:20 PM 77.0 °F - 60.8 °F 57% 29.80 in 6.2 mi East 8.1 mph - N/A   Partly Cloudy
5:50 PM 75.2 °F - 60.8 °F 61% 29.80 in 6.2 mi East 5.8 mph - N/A   Partly Cloudy
6:20 PM 75.2 °F - 60.8 °F 61% 29.80 in 6.2 mi Variable 6.9 mph - N/A   Partly Cloudy
6:50 PM 73.4 °F - 60.8 °F 65% 29.83 in 6.2 mi Variable 2.3 mph - N/A   Partly Cloudy
7:20 PM 73.4 °F - 60.8 °F 65% 29.83 in 6.2 mi WSW 4.6 mph - N/A   Partly Cloudy
7:50 PM 75.2 °F - 48.2 °F 38% 29.83 in 6.2 mi West 13.8 mph - N/A   Partly Cloudy
8:20 PM 75.2 °F - 50.0 °F 41% 29.83 in - WSW 13.8 mph - N/A   Clear
8:50 PM 73.4 °F - 50.0 °F 44% 29.83 in - West 12.7 mph - N/A   Clear
9:20 PM 73.4 °F - 55.4 °F 53% 29.83 in - WNW 10.4 mph - N/A   Clear
9:50 PM 71.6 °F - 51.8 °F 50% 29.86 in - WNW 9.2 mph - N/A   Clear
10:20 PM 71.6 °F - 51.8 °F 50% 29.86 in - WNW 8.1 mph - N/A   Clear
10:50 PM 69.8 °F - 51.8 °F 53% 29.86 in - WNW 6.9 mph - N/A   Clear
11:20 PM 68.0 °F - 51.8 °F 56% 29.86 in - WSW 6.9 mph - N/A   Clear
11:50 PM 68.0 °F - 51.8 °F 56% 29.86 in - West 5.8 mph - N/A   Clear